Regional Weather Roundup
Issued by NWS

Home | Current Version | Previous Version | Graphics & Text | Print | Product List | Glossary On
Versions: 1 2 3 4 5 6 7 8 9 10 11 12 13 14 15 16 17 18 19 20 21 22 23 24 25 26 27 28 29 30 31 32 33 34 35 36 37 38 39 40 41 42 43 44 45 46 47 48 49 50
000
ASUS43 KBIS 200310
RWRND

NORTH DAKOTA REGIONAL WEATHER ROUNDUP
NATIONAL WEATHER SERVICE BISMARCK ND
900 PM CST SUN FEB 19 2017

NOTE: "FAIR" INDICATES FEW OR NO CLOUDS BELOW 12,000 FEET WITH NO
SIGNIFICANT WEATHER AND/OR OBSTRUCTIONS TO VISIBILITY.


NDZ001>003-009>011-017-200400-
NORTHWEST NORTH DAKOTA

CITY           SKY/WX    TMP DP  RH WIND       PRES   REMARKS
WILLISTON      FOG       33  32  96 CALM      29.56R VSB 1/4
MINOT          FAIR      32  31  96 CALM      29.53R
MINOT AFB      PTCLDY    28  28 100 W5        29.52R
$$

NDZ018>021-031>035-040>046-200400-
SOUTHWEST NORTH DAKOTA

CITY           SKY/WX    TMP DP  RH WIND       PRES   REMARKS
BISMARCK       FAIR      37  34  89 E10       29.52F
DICKINSON      FAIR      41  35  79 N5        29.47S
GARRISON         N/A     33  31  92 N5        29.50F
HETTINGER ARPT CLOUDY    39  34  82 E5        29.50R
$$

NDZ004>008-012>016-024-026-027-054-200400-
NORTHEAST NORTH DAKOTA

CITY           SKY/WX    TMP DP  RH WIND       PRES   REMARKS
GRAND FORKS    MOCLDY    41  34  76 SE15      29.61F
GRND FRKS AFB  CLOUDY    41  37  87 S13       29.60F
DEVILS LAKE    FOG       36  36 100 SE10      29.55F VSB 3/4
$$

NDZ022-023-025-028>030-036>039-047>053-200400-
SOUTHEAST NORTH DAKOTA

CITY           SKY/WX    TMP DP  RH WIND       PRES   REMARKS
FARGO          CLOUDY    53  47  79 SE22G36   29.62F
JAMESTOWN      FAIR      43  41  93 SE12      29.55S
$$




USA.gov is the U.S. government's official web portal to all federal, state and local government web resources and services.